IW3HBX-13 Weather Reports


Display with metric or nautical units.
time (UTC)temp
F
wind
direction
speed
MPH
gust
MPH
rain 1hr
in
rain 24hr
in
rain mn
in
humidity
%
barometer
mb
20260901095407 82 65 3.0 5.0 0.00 0.00 0.00 53 1019.5
20260901095258 82 61 6.0 7.0 0.00 0.00 0.00 53 1019.6
20260901094809 82 61 6.0 7.0 0.00 0.00 0.00 53 1019.6
20260901094208 81 53 3.0 5.0 0.00 0.00 0.00 53 1019.6
20260901093608 81 65 4.0 6.0 0.00 0.00 0.00 51 1019.7
20260901093007 81 62 7.0 10.0 0.00 0.00 0.00 52 1019.7
20260901092407 81 68 5.0 8.0 0.00 0.00 0.00 52 1019.6
20260901091846 80 53 7.0 12.0 0.00 0.00 0.00 52 1019.7
20260901091807 80 53 7.0 12.0 0.00 0.00 0.00 52 1019.7
20260901091207 81 69 4.0 7.0 0.00 0.00 0.00 52 1019.6
20260901090607 81 66 6.0 9.0 0.00 0.00 0.00 53 1019.7
20260901085410 80 63 7.0 10.0 0.00 0.00 0.00 52 1019.6
20260901084810 80 61 8.0 10.0 0.00 0.00 0.00 53 1019.6
20260901084207 80 60 6.0 10.0 0.00 0.00 0.00 52 1019.5
20260901083608 80 60 7.0 10.0 0.00 0.00 0.00 52 1019.4
20260901083007 79 56 8.0 12.0 0.00 0.00 0.00 53 1019.4
20260901082407 79 61 4.0 8.0 0.00 0.00 0.00 54 1019.3
20260901081807 79 61 5.0 9.0 0.00 0.00 0.00 53 1019.2
20260901081548 78 60 8.0 10.0 0.00 0.00 0.00 54 1019.1
20260901081207 78 55 5.0 11.0 0.00 0.00 0.00 54 1019.2
20260901080607 78 60 8.0 10.0 0.00 0.00 0.00 54 1019.1
20260901075408 78 65 7.0 11.0 0.00 0.00 0.00 54 1019.0
20260901074808 78 60 6.0 10.0 0.00 0.00 0.00 54 1019.0
20260901074207 78 59 6.0 12.0 0.00 0.00 0.00 54 1018.9
20260901073607 78 64 5.0 10.0 0.00 0.00 0.00 54 1018.8
20260901073007 78 47 5.0 8.0 0.00 0.00 0.00 54 1018.8
20260901072407 78 64 3.0 6.0 0.00 0.00 0.00 57 1018.7
20260901071807 77 59 7.0 10.0 0.00 0.00 0.00 58 1018.7
20260901071208 77 52 4.0 10.0 0.00 0.00 0.00 60 1018.7
20260901070610 77 30 3.0 5.0 0.00 0.00 0.00 64 1018.7
20260901065409 74 46 2.0 4.0 0.00 0.00 0.00 69 1018.6
20260901064810 75 46 2.0 5.0 0.00 0.00 0.00 69 1018.7
20260901064207 74 72 0.0 2.0 0.00 0.00 0.00 67 1018.6
20260901063610 74 65 1.0 3.0 0.00 0.00 0.00 70 1018.5
20260901063010 74 44 2.0 2.0 0.00 0.00 0.00 70 1018.6
20260901062410 74 48 1.0 2.0 0.00 0.00 0.00 70 1018.6
20260901061807 74 353 1.0 2.0 0.00 0.00 0.00 70 1018.5
20260901061207 74 6 1.0 2.0 0.00 0.00 0.00 69 1018.5
20260901060610 74 279 0.0 2.0 0.00 0.00 0.00 70 1018.4
20260901055407 74 58 0.0 1.0 0.00 0.00 0.00 67 1018.3
20260901054807 73 47 1.0 2.0 0.00 0.00 0.00 70 1018.2
20260901054207 73 72 1.0 2.0 0.00 0.00 0.00 70 1018.2
20260901053608 73 77 1.0 3.0 0.00 0.00 0.00 69 1018.3
20260901053007 73 52 2.0 4.0 0.00 0.00 0.00 69 1018.1
20260901052410 73 68 3.0 5.0 0.00 0.00 0.00 67 1018.1
20260901051807 73 36 2.0 2.0 0.00 0.00 0.00 69 1018.1
20260901051210 73 47 2.0 5.0 0.00 0.00 0.00 69 1018.0
20260901050608 72 62 2.0 4.0 0.00 0.00 0.00 69 1017.9
20260901045407 72 65 0.0 1.0 0.00 0.00 0.00 70 1017.7
20260901044807 72 60 0.0 2.0 0.00 0.00 0.00 70 1017.6
20260901044207 71 60 2.0 4.0 0.00 0.00 0.00 70 1017.5
20260901043609 71 287 2.0 4.0 0.00 0.00 0.00 71 1017.6
20260901043007 71 331 2.0 2.0 0.00 0.00 0.00 72 1017.4
20260901042409 71 357 1.0 2.0 0.00 0.00 0.00 71 1017.5
20260901041807 71 354 1.0 2.0 0.00 0.00 0.00 71 1017.5
20260901041207 71 64 0.0 0.0 0.00 0.00 0.00 72 1017.4
20260901040607 71 64 0.0 2.0 0.00 0.00 0.00 70 1017.3
20260901035410 71 64 0.0 2.0 0.00 0.00 0.00 72 1017.3
20260901034808 71 62 0.0 1.0 0.00 0.00 0.00 72 1017.2
20260901034207 71 61 0.0 0.0 0.00 0.00 0.00 71 1017.0
20260901033609 71 62 0.0 0.0 0.00 0.00 0.00 71 1017.0
20260901033009 71 62 0.0 0.0 0.00 0.00 0.00 72 1017.0
20260901032410 72 62 0.0 0.0 0.00 0.00 0.00 71 1016.9
20260901031808 71 62 0.0 0.0 0.00 0.00 0.00 71 1016.9
20260901031208 71 64 1.0 2.0 0.00 0.00 0.00 71 1016.9
20260901030607 71 65 0.0 1.0 0.00 0.00 0.00 71 1017.0
20260901025408 72 65 0.0 0.0 0.00 0.00 0.00 70 1017.0
20260901024809 72 65 0.0 1.0 0.00 0.00 0.00 70 1016.9
20260901024208 72 62 0.0 2.0 0.00 0.00 0.00 69 1017.0
20260901023607 72 62 0.0 2.0 0.00 0.00 0.00 67 1017.0
20260901023007 73 62 2.0 3.0 0.00 0.00 0.00 66 1016.9
20260901022409 73 67 2.0 3.0 0.00 0.00 0.00 67 1017.0
20260901021810 73 65 1.0 2.0 0.00 0.00 0.00 66 1016.9
20260901021207 73 73 1.0 2.0 0.00 0.00 0.00 66 1016.9
20260901020607 73 60 2.0 4.0 0.00 0.00 0.00 65 1016.7
20260901015407 73 58 1.0 3.0 0.00 0.00 0.00 65 1016.8
20260901014808 74 64 3.0 5.0 0.00 0.00 0.00 64 1016.8
20260901014207 74 62 3.0 6.0 0.00 0.00 0.00 63 1016.8
20260901013607 74 65 4.0 6.0 0.00 0.00 0.00 63 1016.7
20260901013007 74 66 4.0 8.0 0.00 0.00 0.00 63 1016.7
20260901012410 74 64 3.0 5.0 0.00 0.00 0.00 63 1016.6
20260901011807 74 59 5.0 7.0 0.00 0.00 0.00 61 1016.8
20260901011207 74 55 4.0 6.0 0.00 0.00 0.00 61 1016.8
20260901010607 75 64 5.0 6.0 0.00 0.00 0.00 60 1016.8
20260901005407 75 66 5.0 8.0 0.00 0.00 0.00 60 1016.8
20260901004808 75 59 4.0 7.0 0.00 0.00 0.00 60 1016.7
20260901004207 76 64 5.0 7.0 0.00 0.00 0.00 61 1016.7
20260901003608 76 65 5.0 7.0 0.00 0.00 0.00 63 1016.6
20260901003007 76 67 5.0 11.0 0.00 0.00 0.00 66 1016.6
20260901002407 76 71 6.0 10.0 0.00 0.00 0.00 69 1016.7
20260901001808 77 67 4.0 6.0 0.00 0.00 0.00 73 1016.6
20260901001536 77 66 4.0 6.0 0.00 0.00 0.00 76 1016.6
20260901001207 77 66 4.0 6.0 0.00 0.00 0.00 76 1016.6
20260901000608 77 70 7.0 12.0 0.00 0.00 0.00 77 1016.6
20260831235407 77 67 7.0 10.0 0.00 0.00 0.00 83 1016.5
20260831235056 76 59 4.0 5.0 0.00 0.00 0.00 86 1016.2
20260831234810 77 63 4.0 7.0 0.00 0.00 0.00 85 1016.3
20260831234207 77 66 4.0 6.0 0.00 0.00 0.00 85 1016.2
20260831233609 76 59 4.0 5.0 0.00 0.00 0.00 86 1016.2
20260831233008 76 65 4.0 7.0 0.00 0.00 0.00 86 1016.1
20260831231807 76 55 3.0 4.0 0.00 0.00 0.00 87 1015.8
20260831231245 76 66 3.0 4.0 0.00 0.00 0.00 87 1015.8
20260831231208 76 66 3.0 4.0 0.00 0.00 0.00 87 1015.8
20260831230609 76 72 2.0 3.0 0.00 0.00 0.00 87 1015.8
20260831224810 76 57 3.0 5.0 0.00 0.00 0.00 87 1015.5
20260831224212 76 71 3.0 5.0 0.00 0.00 0.00 87 1015.2
20260831223607 76 69 4.0 5.0 0.00 0.00 0.00 87 1015.2
20260831223015 77 58 2.0 3.0 0.00 0.00 0.00 87 1015.2
20260831221810 76 70 3.0 4.0 0.00 0.00 0.00 86 1015.0
20260831221209 76 68 2.0 3.0 0.00 0.00 0.00 86 1015.0
20260831220608 77 60 3.0 5.0 0.00 0.00 0.00 86 1015.0
20260831214810 77 69 3.0 4.0 0.00 0.00 0.00 85 1015.0
20260831214207 77 69 3.0 3.0 0.00 0.00 0.00 85 1014.9
20260831213608 77 67 3.0 4.0 0.00 0.00 0.00 86 1014.9
20260831213012 77 71 2.0 2.0 0.00 0.00 0.00 85 1014.9
20260831212417 78 71 0.0 1.0 0.00 0.00 0.00 83 1014.8
20260831211821 78 71 0.0 1.0 0.00 0.00 0.00 83 1014.8
20260831211207 78 79 2.0 2.0 0.00 0.00 0.00 82 1014.7
20260831210609 78 83 3.0 3.0 0.00 0.00 0.00 82 1014.7
20260831205410 77 64 1.0 2.0 0.00 0.00 0.00 82 1014.5
20260831204811 77 64 0.0 1.0 0.00 0.00 0.00 82 1014.5
20260831204209 78 64 0.0 0.0 0.00 0.00 0.00 81 1014.4
20260831203607 78 64 0.0 1.0 0.00 0.00 0.00 81 1014.3
20260831203010 78 80 1.0 2.0 0.00 0.00 0.00 80 1014.3
20260831202407 78 76 2.0 4.0 0.00 0.00 0.00 78 1014.3
20260831201809 79 113 2.0 3.0 0.00 0.00 0.00 78 1014.2
20260831201207 78 147 0.0 1.0 0.00 0.00 0.00 78 1014.1
20260831200610 78 155 0.0 0.0 0.00 0.00 0.00 78 1014.1
20260831195418 79 128 1.0 3.0 0.00 0.00 0.00 77 1014.0
20260831194812 79 91 1.0 4.0 0.00 0.00 0.00 76 1014.0
20260831194206 79 134 1.0 2.0 0.00 0.00 0.00 76 1013.9
20260831193608 79 140 0.0 2.0 0.00 0.00 0.00 76 1013.9
20260831193008 79 140 0.0 2.0 0.00 0.00 0.00 76 1013.8
20260831192409 79 144 1.0 2.0 0.00 0.00 0.00 76 1013.7
20260831191806 80 150 3.0 4.0 0.00 0.00 0.00 76 1013.6
20260831191209 79 152 3.0 4.0 0.00 0.00 0.00 76 1013.5
20260831190606 79 146 3.0 4.0 0.00 0.00 0.00 76 1013.5
20260831185406 80 165 2.0 2.0 0.00 0.00 0.00 76 1013.4
20260831184808 80 147 2.0 5.0 0.00 0.00 0.00 75 1013.3
20260831184206 80 147 1.0 2.0 0.00 0.00 0.00 75 1013.2
20260831183608 80 149 3.0 5.0 0.00 0.00 0.00 75 1013.1
20260831183006 81 125 2.0 4.0 0.00 0.00 0.00 73 1013.0
20260831182406 81 146 1.0 4.0 0.00 0.00 0.00 72 1013.0
20260831181813 81 130 2.0 5.0 0.00 0.00 0.00 72 1012.9
20260831181210 81 99 2.0 2.0 0.00 0.00 0.00 72 1013.0
20260831180608 82 128 2.0 2.0 0.00 0.00 0.00 73 1013.0
20260831175408 82 140 2.0 2.0 0.00 0.00 0.00 72 1012.8
20260831174808 82 93 1.0 3.0 0.00 0.00 0.00 71 1012.8
20260831174207 83 84 1.0 2.0 0.00 0.00 0.00 72 1012.9
20260831173606 83 98 1.0 2.0 0.00 0.00 0.00 70 1012.9
20260831173010 83 112 2.0 3.0 0.00 0.00 0.00 69 1012.9
20260831172406 84 91 2.0 3.0 0.00 0.00 0.00 67 1012.8
20260831171814 84 107 1.0 3.0 0.00 0.00 0.00 66 1013.0
20260831171210 85 115 2.0 4.0 0.00 0.00 0.00 65 1013.1
20260831170608 85 132 2.0 4.0 0.00 0.00 0.00 64 1013.2
20260831165408 86 125 3.0 4.0 0.00 0.00 0.00 63 1013.1
20260831164806 85 113 3.0 4.0 0.00 0.00 0.00 61 1013.2
20260831164206 85 109 2.0 4.0 0.00 0.00 0.00 63 1013.2
20260831163609 86 118 2.0 4.0 0.00 0.00 0.00 60 1013.2
20260831163006 86 101 3.0 5.0 0.00 0.00 0.00 61 1013.3
20260831162407 86 85 1.0 3.0 0.00 0.00 0.00 60 1013.3
20260831161808 86 94 2.0 3.0 0.00 0.00 0.00 60 1013.4
20260831161207 86 72 3.0 4.0 0.00 0.00 0.00 59 1013.3
20260831160606 87 75 2.0 4.0 0.00 0.00 0.00 56 1013.4
20260831155409 86 123 3.0 5.0 0.00 0.00 0.00 56 1013.4
20260831154807 87 96 3.0 4.0 0.00 0.00 0.00 57 1013.5
20260831154207 86 113 3.0 5.0 0.00 0.00 0.00 57 1013.5
20260831153607 87 105 2.0 5.0 0.00 0.00 0.00 56 1013.5
20260831153007 87 80 3.0 4.0 0.00 0.00 0.00 56 1013.5
20260831152409 87 88 3.0 5.0 0.00 0.00 0.00 56 1013.4
20260831151810 88 130 3.0 4.0 0.00 0.00 0.00 54 1013.5
20260831151207 88 82 3.0 4.0 0.00 0.00 0.00 54 1013.5
20260831150607 89 127 2.0 4.0 0.00 0.00 0.00 52 1013.5
20260831145410 91 236 3.0 5.0 0.00 0.00 0.00 40 1013.6
20260831144807 91 173 2.0 3.0 0.00 0.00 0.00 40 1013.5
20260831144207 91 224 3.0 5.0 0.00 0.00 0.00 41 1013.5
20260831143607 91 221 2.0 4.0 0.00 0.00 0.00 40 1013.5
20260831143007 91 151 2.0 3.0 0.00 0.00 0.00 41 1013.6
20260831142408 90 233 2.0 5.0 0.00 0.00 0.00 42 1013.6
20260831141807 91 229 0.0 2.0 0.00 0.00 0.00 41 1013.6
20260831141207 90 235 3.0 5.0 0.00 0.00 0.00 41 1013.6
20260831140607 89 224 5.0 7.0 0.00 0.00 0.00 41 1013.6
20260831135407 90 221 4.0 7.0 0.00 0.00 0.00 41 1013.7
20260831134808 91 214 1.0 2.0 0.00 0.00 0.00 39 1013.7
20260831134208 90 233 1.0 3.0 0.00 0.00 0.00 41 1013.8
20260831133607 90 234 1.0 2.0 0.00 0.00 0.00 40 1013.8
20260831133007 90 269 2.0 3.0 0.00 0.00 0.00 41 1013.8
20260831132407 90 250 2.0 3.0 0.00 0.00 0.00 42 1013.9
20260831131810 91 164 1.0 2.0 0.00 0.00 0.00 41 1014.0
20260831131210 90 225 4.0 6.0 0.00 0.00 0.00 42 1014.0
20260831130607 90 283 1.0 2.0 0.00 0.00 0.00 42 1014.1
20260831125407 89 226 3.0 7.0 0.00 0.00 0.00 44 1014.3
20260831124807 89 214 3.0 6.0 0.00 0.00 0.00 44 1014.3
20260831124210 89 136 2.0 4.0 0.00 0.00 0.00 44 1014.4
20260831123608 89 225 1.0 3.0 0.00 0.00 0.00 43 1014.4
20260831123008 88 231 3.0 5.0 0.00 0.00 0.00 44 1014.4
20260831122409 89 81 1.0 2.0 0.00 0.00 0.00 45 1014.5
20260831121807 89 182 1.0 4.0 0.00 0.00 0.00 45 1014.5
20260831121209 88 238 2.0 5.0 0.00 0.00 0.00 44 1014.4
20260831120607 87 227 4.0 5.0 0.00 0.00 0.00 44 1014.5
20260831115410 87 269 3.0 4.0 0.00 0.00 0.00 44 1014.6
20260831114808 87 245 2.0 3.0 0.00 0.00 0.00 44 1014.6
20260831114210 87 238 5.0 8.0 0.00 0.00 0.00 44 1014.7
20260831113608 87 228 5.0 7.0 0.00 0.00 0.00 44 1014.7
20260831113007 87 151 2.0 2.0 0.00 0.00 0.00 49 1014.7
20260831112407 89 224 1.0 2.0 0.00 0.00 0.00 44 1014.8
20260831111807 88 220 1.0 2.0 0.00 0.00 0.00 44 1014.8
20260831111207 88 260 1.0 3.0 0.00 0.00 0.00 45 1014.9
20260831105407 87 219 1.0 2.0 0.00 0.00 0.00 46 1015.0
20260831104807 87 200 2.0 5.0 0.00 0.00 0.00 45 1014.9
20260831104210 88 173 2.0 4.0 0.00 0.00 0.00 45 1015.0
20260831103609 87 175 1.0 4.0 0.00 0.00 0.00 48 1015.1
20260831103007 88 136 2.0 4.0 0.00 0.00 0.00 46 1015.0
20260831102408 88 114 2.0 2.0 0.00 0.00 0.00 48 1015.1
20260831101808 87 147 2.0 4.0 0.00 0.00 0.00 48 1015.1
20260831101207 86 164 1.0 2.0 0.00 0.00 0.00 48 1015.1
20260831100607 84 300 2.0 2.0 0.00 0.00 0.00 48 1015.2